CW3827 Weather Reports


Display with metric or nautical units.
time (UTC)temp
F
wind
direction
speed
MPH
gust
MPH
rain 1hr
in
rain 24hr
in
rain mn
in
humidity
%
barometer
mb
20260901044520 68 70 12.0 17.0 0.00 0.00 0.00 61 1023.4
20260901043012 68 96 12.0 21.0 0.00 0.00 0.00 58 1023.4
20260901041518 69 77 13.0 21.0 0.00 0.00 0.00 55 1023.6
20260901040004 68 55 9.0 16.0 0.00 0.00 0.00 59 1023.9
20260901034504 72 77 10.0 17.0 0.00 0.00 0.00 54 1024.0
20260901033023 77 116 25.0 38.0 0.00 0.00 0.00 36 1023.4
20260901031518 78 57 19.0 29.0 0.00 0.00 0.00 34 1022.7
20260901030013 77 51 19.0 28.0 0.00 0.00 0.00 38 1022.4
20260901024513 74 33 13.0 16.0 0.00 0.00 0.00 42 1022.1
20260901023007 75 58 10.0 17.0 0.00 0.00 0.00 39 1022.0
20260901021533 74 30 12.0 16.0 0.00 0.00 0.00 40 1021.7
20260901020025 76 63 9.0 11.0 0.00 0.00 0.00 38 1021.5
20260901014538 77 56 8.0 11.0 0.00 0.00 0.00 36 1021.1
20260901013017 79 74 9.0 12.0 0.00 0.00 0.00 34 1021.1
20260901011514 81 66 10.0 16.0 0.00 0.00 0.00 32 1021.0
20260901010012 82 75 10.0 20.0 0.00 0.00 0.00 31 1021.0
20260901004533 83 74 10.0 14.0 0.00 0.00 0.00 30 1021.0
20260901003033 82 63 9.0 15.0 0.00 0.00 0.00 28 1021.2
20260901001531 81 47 10.0 18.0 0.00 0.00 0.00 30 1021.1
20260901000025 79 46 15.0 25.0 0.00 0.00 0.00 33 1021.4
20260831234516 78 37 18.0 31.0 0.00 0.00 0.00 35 1021.9
20260831233011 77 57 23.0 31.0 0.00 0.00 0.00 37 1022.0
20260831231532 75 46 16.0 23.0 0.00 0.00 0.00 46 1022.2
20260831230004 80 89 18.0 29.0 0.00 0.00 0.00 36 1021.9
20260831224506 82 333 9.0 19.0 0.00 0.00 0.00 32 1021.8
20260831223004 82 96 5.0 9.0 0.00 0.00 0.00 32 1021.9
20260831221508 83 105 7.0 13.0 0.00 0.00 0.00 33 1022.0
20260831220004 82 121 11.0 17.0 0.00 0.00 0.00 33 1022.1
20260831214519 81 347 13.0 25.0 0.00 0.00 0.00 34 1022.1
20260831213004 82 235 19.0 27.0 0.00 0.00 0.00 33 1022.3
20260831211517 86 132 8.0 14.0 0.00 0.00 0.00 30 1022.5
20260831210005 86 64 7.0 15.0 0.00 0.00 0.00 24 1022.2
20260831204517 86 63 13.0 18.0 0.00 0.00 0.00 24 1022.3
20260831203007 87 193 0.0 0.0 0.00 0.00 0.00 23 1022.7
20260831201504 88 210 0.0 6.0 0.00 0.00 0.00 26 1022.9
20260831200007 88 146 7.0 13.0 0.00 0.00 0.00 24 1023.0
20260831194512 89 257 8.0 11.0 0.00 0.00 0.00 28 1023.4
20260831193009 86 349 5.0 8.0 0.00 0.00 0.00 30 1023.6
20260831191512 85 328 5.0 9.0 0.00 0.00 0.00 32 1023.7
20260831190007 86 304 5.0 8.0 0.00 0.00 0.00 31 1023.9
20260831184511 84 349 0.0 9.0 0.00 0.00 0.00 32 1024.0
20260831183010 85 307 6.0 8.0 0.00 0.00 0.00 33 1024.2
20260831181512 84 311 3.0 9.0 0.00 0.00 0.00 33 1024.5
20260831180016 84 329 5.0 14.0 0.00 0.00 0.00 32 1024.5
20260831174518 86 56 8.0 17.0 0.00 0.00 0.00 32 1024.6
20260831173013 85 23 5.0 11.0 0.00 0.00 0.00 31 1024.6
20260831171510 84 333 4.0 9.0 0.00 0.00 0.00 34 1024.9
20260831170014 84 355 4.0 9.0 0.00 0.00 0.00 34 1025.0
20260831164519 84 96 8.0 13.0 0.00 0.00 0.00 33 1025.0
20260831163014 84 153 4.0 6.0 0.00 0.00 0.00 32 1024.9
20260831161518 83 172 3.0 10.0 0.00 0.00 0.00 35 1024.8
20260831160018 81 186 1.0 5.0 0.00 0.00 0.00 36 1024.8
20260831154551 80 225 0.0 0.0 0.00 0.00 0.00 37 1024.6
20260831153017 80 277 1.0 5.0 0.00 0.00 0.00 38 1024.6
20260831151520 80 225 3.0 4.0 0.00 0.00 0.00 38 1024.5
20260831150015 80 177 0.0 0.0 0.00 0.00 0.00 37 1024.6
20260831144519 77 108 0.0 2.0 0.00 0.00 0.00 43 1024.5
20260831143019 76 108 2.0 7.0 0.00 0.00 0.00 45 1024.4
20260831141518 77 95 6.0 8.0 0.00 0.00 0.00 43 1024.2
20260831140007 76 104 3.0 4.0 0.00 0.00 0.00 48 1024.0
20260831134505 74 88 0.0 3.0 0.00 0.00 0.00 52 1024.0
20260831133004 69 86 6.0 7.0 0.00 0.00 0.00 57 1024.0
20260831131518 67 36 4.0 9.0 0.00 0.00 0.00 58 1023.7
20260831130014 65 86 7.0 9.0 0.00 0.00 0.00 58 1023.6
20260831124509 65 120 7.0 8.0 0.00 0.00 0.00 56 1023.6
20260831123012 66 88 7.0 9.0 0.00 0.00 0.00 53 1023.5
20260831121502 67 84 9.0 11.0 0.00 0.00 0.00 50 1023.5
20260831120006 67 83 8.0 10.0 0.00 0.00 0.00 51 1023.5
20260831114531 66 81 7.0 9.0 0.00 0.00 0.00 53 1023.4
20260831113017 65 74 9.0 11.0 0.00 0.00 0.00 55 1023.1
20260831111513 64 79 7.0 9.0 0.00 0.00 0.00 57 1023.2
20260831110008 65 70 6.0 7.0 0.00 0.00 0.00 56 1023.2
20260831104514 65 122 7.0 9.0 0.00 0.00 0.00 56 1023.1
20260831103003 66 43 9.0 11.0 0.00 0.00 0.00 52 1023.1
20260831101536 68 54 11.0 13.0 0.00 0.00 0.00 49 1022.9
20260831100019 66 54 10.0 11.0 0.00 0.00 0.00 52 1023.1
20260831094516 68 59 8.0 12.0 0.00 0.00 0.00 50 1023.1
20260831093015 70 54 11.0 14.0 0.00 0.00 0.00 45 1023.3
20260831091519 71 75 7.0 15.0 0.00 0.00 0.00 44 1023.4
20260831090007 70 54 13.0 16.0 0.00 0.00 0.00 45 1023.4
20260831084526 72 21 10.0 16.0 0.00 0.00 0.00 44 1023.1
20260831083027 72 288 8.0 13.0 0.00 0.00 0.00 44 1023.1
20260831081519 71 68 10.0 16.0 0.00 0.00 0.00 46 1023.1
20260831080018 70 49 13.0 15.0 0.00 0.00 0.00 46 1023.1
20260831074510 70 68 13.0 16.0 0.00 0.00 0.00 47 1023.2
20260831073035 69 105 10.0 12.0 0.00 0.00 0.00 49 1023.4
20260831071539 69 93 7.0 11.0 0.00 0.00 0.00 49 1023.4
20260831070029 70 50 13.0 16.0 0.00 0.00 0.00 47 1023.1
20260831064528 70 64 12.0 15.0 0.00 0.00 0.00 48 1023.2
20260831063020 71 47 14.0 18.0 0.00 0.00 0.00 46 1023.4
20260831061517 71 77 12.0 17.0 0.00 0.00 0.00 47 1023.6
20260831060036 70 85 13.0 15.0 0.00 0.00 0.00 49 1023.6
20260831054532 68 208 6.0 9.0 0.00 0.00 0.00 55 1023.8
20260831053031 70 201 7.0 11.0 0.00 0.00 0.00 50 1024.0
20260831051535 69 232 9.0 11.0 0.00 0.00 0.00 53 1024.0
20260831050003 72 214 5.0 7.0 0.00 0.00 0.00 50 1024.0